Weather History for PAPG - April, 2012

Change the Weather History Date:

Saturday, April 21, 2012

  Actual Average Record
Temperature  
Mean Temperature 44 °F -  
Max Temperature 51 °F 46 °F 59 °F (1991)
Min Temperature 37 °F 33 °F 26 °F (2008)
Degree Days  
Heating Degree Days 21    
Moisture  
Dew Point 32 °F    
Average Humidity 64    
Maximum Humidity 87    
Minimum Humidity 40    
Precipitation  
Precipitation 0.00 in - - ()
Sea Level Pressure  
Sea Level Pressure 30.15 in    
Wind  
Wind Speed 3 mph (SE)    
Max Wind Speed 10 mph    
Max Gust Speed 20 mph    
Visibility 10 miles    
Events      
Averages and records for this station are not official NWS values.
T = Trace of Precipitation, MM = Missing Value Source: NWS Daily Summary

Daily Weather History Graph

Daily Weather History Graph

Search for Another Location

Airport or City:

Trip Planner

Search our weather history database for the weather conditions in past years. The results will help you decide how hot, cold, wet, or windy it might be!

Date:

Astronomy

Apr. 21, 2012 Rise Set
Actual Time 5:27 AM AKDT 8:15 PM AKDT
Civil Twilight 4:44 AM AKDT 8:58 PM AKDT
Nautical Twilight 3:47 AM AKDT 9:55 PM AKDT
Astronomical Twilight 2:31 AM AKDT 11:14 PM AKDT
Moon 5:16 AM AKDT (4/21) 9:20 PM AKDT (4/21)
Length of Visible Light 16h 14m
Length of Day
14h 47m
New Moon, 0% of the Moon is Illuminated
Apr 21
New Moon
Apr 29
First Quarter
May 5
Full
May 12
Last Quarter
May 20
New

Hourly Weather History & Observations

Time (AKDT) Temp. Windchill Dew Point Humidity Pressure Visibility Wind Dir Wind Speed Gust Speed Precip Events Conditions
12:16 AM 39.2 °F - 35.6 °F 87% 30.15 in 8.0 mi Calm Calm - N/A   Overcast
12:36 AM 39.2 °F - 35.6 °F 87% 30.16 in 7.0 mi Calm Calm - N/A   Overcast
12:56 AM 39.2 °F - 35.6 °F 87% 30.16 in 10.0 mi Calm Calm - N/A   Overcast
1:16 AM 39.2 °F 37.0 °F 35.6 °F 87% 30.16 in 10.0 mi East 3.5 mph - N/A   Overcast
1:36 AM 39.2 °F 34.2 °F 35.6 °F 87% 30.17 in 10.0 mi ESE 6.9 mph - N/A   Mostly Cloudy
1:56 AM 39.2 °F - 35.6 °F 87% 30.17 in 9.0 mi Calm Calm - N/A   Overcast
2:16 AM 39.2 °F - 35.6 °F 87% 30.17 in 10.0 mi Calm Calm - N/A   Overcast
2:36 AM 39.2 °F - 35.6 °F 87% 30.17 in 10.0 mi Calm Calm - N/A   Overcast
2:56 AM 39.2 °F - 35.6 °F 87% 30.17 in 10.0 mi Calm Calm - N/A   Overcast
3:16 AM 39.2 °F - 35.6 °F 87% 30.17 in 10.0 mi Calm Calm - N/A   Overcast
3:36 AM 41.0 °F 39.0 °F 33.8 °F 76% 30.17 in 10.0 mi NNW 3.5 mph - N/A   Overcast
3:56 AM 41.0 °F 38.0 °F 33.8 °F 76% 30.17 in 10.0 mi SE 4.6 mph - N/A   Overcast
4:16 AM 39.2 °F 35.0 °F 35.6 °F 87% 30.17 in 10.0 mi NE 5.8 mph - N/A   Mostly Cloudy
4:36 AM 41.0 °F 37.1 °F 33.8 °F 76% 30.17 in 10.0 mi SSE 5.8 mph - N/A   Mostly Cloudy
4:56 AM 39.2 °F 37.0 °F 35.6 °F 87% 30.17 in 10.0 mi SW 3.5 mph - N/A   Mostly Cloudy
5:16 AM 41.0 °F - 33.8 °F 76% 30.17 in 10.0 mi Calm Calm - N/A   Overcast
5:36 AM 39.2 °F 37.0 °F 35.6 °F 87% 30.17 in 10.0 mi SW 3.5 mph - N/A   Overcast
5:56 AM 39.2 °F - 35.6 °F 87% 30.17 in 10.0 mi Calm Calm - N/A   Mostly Cloudy
6:16 AM 42.8 °F - 33.8 °F 70% 30.17 in 10.0 mi Calm Calm - N/A   Mostly Cloudy
6:36 AM 41.0 °F 38.0 °F 33.8 °F 76% 30.16 in 10.0 mi South 4.6 mph - N/A   Mostly Cloudy
6:56 AM 41.0 °F - 35.6 °F 81% 30.17 in 10.0 mi Calm Calm - N/A   Mostly Cloudy
7:16 AM 41.0 °F - 35.6 °F 81% 30.17 in 10.0 mi Calm Calm - N/A   Mostly Cloudy
7:36 AM 42.8 °F 38.6 °F 33.8 °F 70% 30.17 in 10.0 mi SSE 6.9 mph - N/A   Mostly Cloudy
7:56 AM 42.8 °F 38.0 °F 33.8 °F 70% 30.17 in 10.0 mi South 8.1 mph - N/A   Mostly Cloudy
8:16 AM 44.6 °F 41.4 °F 33.8 °F 66% 30.17 in 10.0 mi South 5.8 mph - N/A   Mostly Cloudy
8:36 AM 44.6 °F 43.1 °F 30.2 °F 57% 30.17 in 10.0 mi SSE 3.5 mph - N/A   Mostly Cloudy
8:56 AM 44.6 °F 41.4 °F 33.8 °F 66% 30.17 in 10.0 mi SE 5.8 mph - N/A   Mostly Cloudy
9:16 AM 44.6 °F 41.4 °F 32.0 °F 61% 30.18 in 10.0 mi ESE 5.8 mph - N/A   Mostly Cloudy
9:36 AM 46.4 °F 42.9 °F 32.0 °F 57% 30.18 in 10.0 mi ESE 6.9 mph 17.3 mph N/A   Mostly Cloudy
9:56 AM 46.4 °F 42.9 °F 30.2 °F 53% 30.17 in 10.0 mi SE 6.9 mph 16.1 mph N/A   Mostly Cloudy
10:16 AM 46.4 °F 44.3 °F 33.8 °F 62% 30.17 in 10.0 mi East 4.6 mph - N/A   Mostly Cloudy
10:36 AM 48.2 °F - 30.2 °F 50% 30.17 in 10.0 mi South 5.8 mph - N/A   Mostly Cloudy
10:56 AM 48.2 °F - 30.2 °F 50% 30.17 in 10.0 mi Calm Calm - N/A   Mostly Cloudy
11:16 AM 48.2 °F - 32.0 °F 54% 30.17 in 10.0 mi SSE 4.6 mph - N/A   Mostly Cloudy
11:36 AM 48.2 °F - 30.2 °F 50% 30.17 in 10.0 mi SSE 9.2 mph - N/A   Mostly Cloudy
11:56 AM 48.2 °F - 32.0 °F 54% 30.17 in 10.0 mi SE 9.2 mph 18.4 mph N/A   Mostly Cloudy
12:16 PM 48.2 °F - 30.2 °F 50% 30.17 in 10.0 mi SE 8.1 mph - N/A   Mostly Cloudy
12:36 PM 48.2 °F - 30.2 °F 50% 30.17 in 10.0 mi South 4.6 mph - N/A   Mostly Cloudy
12:56 PM 48.2 °F - 30.2 °F 50% 30.17 in 10.0 mi ESE 5.8 mph - N/A   Mostly Cloudy
1:16 PM 50.0 °F - 30.2 °F 47% 30.17 in 10.0 mi ESE 10.4 mph 19.6 mph N/A   Mostly Cloudy
1:36 PM 50.0 °F - 30.2 °F 47% 30.17 in 10.0 mi East 6.9 mph - N/A   Mostly Cloudy
1:56 PM 50.0 °F - 28.4 °F 43% 30.17 in 10.0 mi East 8.1 mph 16.1 mph N/A   Mostly Cloudy
2:16 PM 50.0 °F - 30.2 °F 47% 30.16 in 10.0 mi East 5.8 mph 16.1 mph N/A   Mostly Cloudy
2:36 PM 50.0 °F - 30.2 °F 47% 30.16 in 10.0 mi East 8.1 mph 17.3 mph N/A   Mostly Cloudy
2:56 PM 51.8 °F - 32.0 °F 47% 30.15 in 10.0 mi ESE 9.2 mph 16.1 mph N/A   Mostly Cloudy
3:16 PM 50.0 °F - 28.4 °F 43% 30.15 in 10.0 mi ESE 10.4 mph - N/A   Mostly Cloudy
3:36 PM 50.0 °F - 30.2 °F 47% 30.14 in 10.0 mi East 6.9 mph - N/A   Mostly Cloudy
3:56 PM 50.0 °F - 30.2 °F 47% 30.14 in 10.0 mi East 4.6 mph - N/A   Mostly Cloudy
4:16 PM 50.0 °F - 28.4 °F 43% 30.13 in 10.0 mi ENE 6.9 mph - N/A   Mostly Cloudy
4:36 PM 50.0 °F - 28.4 °F 43% 30.13 in 10.0 mi East 6.9 mph - N/A   Mostly Cloudy
4:56 PM 50.0 °F - 28.4 °F 43% 30.12 in 10.0 mi East 8.1 mph - N/A   Mostly Cloudy
5:16 PM 50.0 °F - 26.6 °F 40% 30.12 in 10.0 mi ESE 5.8 mph - N/A   Overcast
5:36 PM 50.0 °F - 26.6 °F 40% 30.12 in 10.0 mi ESE 4.6 mph - N/A   Overcast
5:56 PM 50.0 °F - 28.4 °F 43% 30.12 in 10.0 mi SE 3.5 mph - N/A   Mostly Cloudy
6:16 PM 50.0 °F - 28.4 °F 43% 30.11 in 10.0 mi SE 3.5 mph - N/A   Mostly Cloudy
6:36 PM 50.0 °F - 28.4 °F 43% 30.11 in 10.0 mi ESE 3.5 mph - N/A   Mostly Cloudy
6:56 PM 48.2 °F - 28.4 °F 46% 30.11 in 10.0 mi ESE 3.5 mph - N/A   Mostly Cloudy
7:16 PM 48.2 °F - 30.2 °F 50% 30.11 in 10.0 mi SE 3.5 mph - N/A   Mostly Cloudy
7:36 PM 48.2 °F - 28.4 °F 46% 30.11 in 10.0 mi SSE 3.5 mph - N/A   Mostly Cloudy
7:56 PM 46.4 °F 44.3 °F 28.4 °F 50% 30.11 in 10.0 mi SSE 4.6 mph - N/A   Mostly Cloudy
8:16 PM 44.6 °F 42.2 °F 32.0 °F 61% 30.11 in 10.0 mi SW 4.6 mph - N/A   Mostly Cloudy
8:36 PM 42.8 °F 40.1 °F 32.0 °F 66% 30.11 in 10.0 mi SW 4.6 mph - N/A   Mostly Cloudy
8:56 PM 42.8 °F - 33.8 °F 70% 30.11 in 10.0 mi Calm Calm - N/A   Scattered Clouds
9:16 PM 41.0 °F 39.0 °F 32.0 °F 70% 30.12 in 10.0 mi SSW 3.5 mph - N/A   Scattered Clouds
9:36 PM 39.2 °F - 30.2 °F 70% 30.11 in 10.0 mi Calm Calm - N/A   Scattered Clouds
9:56 PM 39.2 °F - 30.2 °F 70% 30.12 in 10.0 mi Calm Calm - N/A   Mostly Cloudy
10:16 PM 37.4 °F - 32.0 °F 81% 30.12 in 10.0 mi Calm Calm - N/A   Scattered Clouds
10:36 PM 37.4 °F 34.9 °F 30.2 °F 75% 30.12 in 10.0 mi SW 3.5 mph - N/A   Partly Cloudy
10:56 PM 39.2 °F 37.0 °F 32.0 °F 75% 30.11 in 10.0 mi SW 3.5 mph - N/A   Mostly Cloudy
11:16 PM 39.2 °F 37.0 °F 32.0 °F 75% 30.11 in 10.0 mi SW 3.5 mph - N/A   Mostly Cloudy
11:36 PM 37.4 °F 34.9 °F 32.0 °F 81% 30.11 in 10.0 mi WSW 3.5 mph - N/A   Clear
11:56 PM 37.4 °F - 30.2 °F 75% 30.11 in 10.0 mi Calm Calm - N/A   Partly Cloudy